www.pogodaiklimat.ru

Погода и климат >> Архив погоды >> Парагвай >> Сан Эстанислао


ПОГОДА в Сан Эстанислао

  • Прогноз погоды в Сан Эстанислао
  • Монитор погоды в Сан Эстанислао

АРХИВ ПОГОДЫ в Сан Эстанислао

Время (UTC), дата Ветер
(напр.,м/с)
 
Видим.   Явления Облачность Т
(С)
Тd
(С)
f
(%)
Тe
(С)
Тes
(С)
Комфортность P
(гПа)
Po
(гПа)
Тmin
(С)
Tmax
(С)
R
(мм)
R24
(мм)
S
(см)
06 9.01 В 2 20 км ясно +25.8 +22.0 80 +33 +33 очень
душно
1009.1 987.5
09 9.01 В 2 20 км 8/0 2000 м
[Ac As]
+25.6 +23.4 88 +35 +35 очень
душно
1008.7 987.1
12 9.01 В 4 20 км 5/0 2000 м
[Ac trans]
+27.2 +24.9 87 +39 +43 очень
душно
1010.6 989.1 +24.4
15 9.01 СЗ 4 20 км 5/5 1000 м
[Cu med, cong]
+32.0 +21.8 55 +41 +48 опасность
перегрева
1010.8 989.7
18 9.01 С 4 20 км 5/5 1000 м
[Cu med, cong]
+34.2 +20.7 45 +41 +46 опасность
перегрева
1008.1 987.1
21 9.01 С 2 20 км 8/8 1000 м
[Cu med, cong Ac As]
+33.0 +22.9 55 +43 +43 опасность
перегрева
1006.3 985.2
00 10.01 штиль 0 20 км ясно +30.2 +22.6 64 +40 +40 очень
душно
1006.3 985.0 +35.0
03 10.01 В 1 20 км ясно +27.6 +23.6 79 +38 +38 очень
душно
1008.7 987.3
06 10.01 В 4 20 км ясно +27.0 +23.9 83 +37 +37 очень
душно
1007.6 986.1
09 10.01 В 1 20 км ясно +25.6 +21.7 79 +33 +33 очень
душно
1007.3 985.7
12 10.01 В 1 20 км 3/0
[Ci sp]
+28.4 +20.3 62 +35 +44 очень
душно
1009.6 988.2 +25.0
15 10.01 СЗ 2 20 км 3/0
[Ci sp]
+32.6 +19.8 47 +39 +59 опасность
солнечного
удара
1011.7 992.2
18 10.01 СЗ 2 20 км 4/4 1000 м
[Cu med, cong]
+34.6 +20.5 44 +41 +51 опасность
перегрева
1008.6 987.7
00 11.01 штиль 0 20 км 8/0 2000 м
[Ac As]
+28.0 +20.4 63 +34 +34 очень
душно
1009.3 987.9 +35.2
06 11.01 В 2 20 км 8/0 2000 м
[Ac As]
+24.4 +20.9 81 +31 +31 очень
душно
1011.7 990.0
09 11.01 В 2 20 км 8/0 2000 м
[Ac As]
+24.2 +20.8 81 +30 +30 очень
душно
1011.7 989.9
12 11.01 ЮЗ 2 20 км 10/0 2000 м
[As trans]
+24.4 +20.7 80 +30 +34 очень
душно
1014.5 992.8 +24.0
15 11.01 штиль 0 20 км 8/0 2000 м
[Ac As]
+30.4 +22.5 63 +40 +53 опасность
солнечного
удара
1014.9 993.5
18 11.01 СЗ 1 20 км 4/4 1000 м
[Cu med, cong]
+32.0 +21.7 55 +41 +52 опасность
перегрева
1014.4 993.2
21 11.01 штиль 0 20 км 4/4 1000 м
[Cu med, cong]
+33.6 +22.6 53 +43 +45 опасность
перегрева
1011.3 990.2
00 12.01 штиль 0 5000 м морось {дождь} 10/10 300 м
[St]
+28.2 +25.1 83 +41 +41 опасность
перегрева
1012.4 991.0 +34.0 10
03 12.01 штиль 0 20 км 10/10 600 м
[Sc]
+22.4 +21.8 96 +30 +30 очень
душно
1014.2 992.2
06 12.01 штиль 0 20 км 8/0 2000 м
[Ac As]
+22.4 +21.6 95 +30 +30 очень
душно
1013.0 991.0
09 12.01 штиль 0 20 км 10/0 2000 м
[Ac As]
+23.2 +21.7 91 +31 +31 очень
душно
1012.8 990.9
12 12.01 штиль 0 5000 м гроза, ливневой дождь 10/6 300 м
[Cb cap Ac As]
+24.8 +23.6 93 +34 +35 очень
душно
1014.3 992.5 +22.0 1
15 12.01 СВ 2 20 км {дождь} 10/5 800 м
[Sc Ac As]
+25.0 +22.0 83 +32 +35 очень
душно
1015.3 993.5 9
18 12.01 штиль 0 20 км 10/0 2000 м
[Ac As]
+30.4 +22.5 63 +40 +46 очень
душно
1013.7 992.3
21 12.01 ЮВ 2 20 км 3/0
[Ci sp]
+32.8 +23.0 56 +43 +45 опасность
перегрева
1010.3 989.1
03 13.01 штиль 0 20 км 8/0 2000 м
[Ac As]
+25.8 +23.2 86 +35 +35 очень
душно
1012.5 990.8
06 13.01 штиль 0 20 км ясно +26.6 +24.1 86 +37 +37 очень
душно
1011.9 990.3
09 13.01 В 2 20 км 4/0 2000 м
[Ac As]
+23.6 +22.5 94 +31 +31 очень
душно
1011.4 989.6
12 13.01 СВ 2 20 км 4/0
[Ci sp]
+26.4 +22.9 81 +35 +43 очень
душно
1012.8 991.2 +23.0 9
15 13.01 ЮЗ 2 20 км 4/4 1000 м
[Cu med, cong]
+31.6 +21.9 56 +40 +53 опасность
солнечного
удара
1014.2 992.9
18 13.01 З 4 20 км 8/8 1000 м
[Cu med, cong]
+33.6 +20.9 47 +41 +43 опасность
перегрева
1012.6 991.5
21 13.01 штиль 0 20 км 8/8 1000 м
[Cu med, cong Ac As]
+32.0 +23.3 60 +43 +43 опасность
перегрева
1010.4 989.2
00 14.01 штиль 0 20 км ясно +27.0 +21.0 70 +34 +34 очень
душно
1011.0 989.4 +34.0
03 14.01 штиль 0 20 км 4/0 2000 м
[Ac trans]
+25.0 +22.0 83 +32 +32 очень
душно
1013.1 991.5
09 14.01 СВ 2 20 км 5/0 2000 м
[Ac As]
+24.6 +22.2 87 +32 +32 очень
душно
1011.8 990.0
12 14.01 СВ 2 20 км 4/0
[Ci sp]
+26.2 +21.4 75 +33 +41 очень
душно
1013.2 991.5 +24.0
15 14.01 С 2 20 км 8/8 1000 м
[Cu med, cong Ac As]
+32.2 +21.6 54 +41 +45 опасность
перегрева
1013.7 992.5
18 14.01 СЗ 2 20 км 8/4 1000 м
[Cu med, cong Ac As]
+33.2 +22.9 55 +43 +48 опасность
перегрева
1012.1 990.9
21 14.01 штиль 0 20 км 5/5 1000 м
[Cu med, cong]
+33.0 +22.9 55 +43 +44 опасность
перегрева
1009.5 988.3
00 15.01 штиль 0 20 км ясно +29.4 +23.1 69 +39 +39 очень
душно
1010.4 988.9 +34.0
09 15.01 СВ 2 20 км 3/0 2000 м
[Ac As]
+25.0 +22.0 83 +32 +32 очень
душно
1011.1 989.3
12 15.01 СВ 2 20 км ясно +27.4 +22.4 74 +36 +44 очень
душно
1012.2 990.7 +25.0
15 15.01 СВ 4 20 км 6/6 1000 м
[Cu med, cong Ac As]
+33.6 +22.6 53 +43 +49 опасность
перегрева
1012.7 991.6
18 15.01 СЗ 2 20 км 8/4 1000 м
[Cu med, cong Ac As]
+35.0 +23.6 52 +46 +51 опасность
перегрева
1010.7 989.7
21 15.01 СЗ 4 20 км 10/5 1000 м
[Cu med, cong Ac As]
+35.0 +23.7 52 +46 +46 опасность
перегрева
1008.9 987.9
00 16.01 В 1 20 км 8/0 2000 м
[Ac As]
+26.0 +24.5 91 +36 +36 очень
душно
1010.0 988.3 +35.6 0.0

 

Местоположение метеостанции Сан Эстанислао (Парагвай): широта -24.65 долгота -56.43 высота над уровнем моря 168 м.

В архиве по умолчанию представлена погода в Сан Эстанислао за последнюю неделю. Архивные данные за месяц целиком и за предыдущие месяцы, начиная с января 2011 года, Вы можете получить, выбрав интересующий диапазон дат из раскрывающегося списка и нажав кнопку "Ввод!".


*Определитесь, кто Вы:
робот инопланетянин человек

Внимание! Время в таблицах - всемирное. Для получения местного времени необходимо прибавить поправку, которая равна -4 ч.

Смотрите также архив погоды в соседних городах и на ближайших метеорологических станциях:

Погода в Коронель-Овьедо (Парагвай) (89 км)
Погода в Сан-Педро (Парагвай) (93 км)
Погода в Вильяррике (Парагвай) (122 км)
Погода в Асунсьоне (Парагвай) (128 км)
Погода в Парагуари (Парагвай) (130 км)
Погода в Сети-Кедасе (Мату-Гросу-ду-Сул, Бразилия) (162 км)
Погода в Консепсьоне (Парагвай) (164 км)
Погода в Каасапе (Парагвай) (170 км)
Погода в Аэропорту Гуарани (Парагвай) (182 км)
Погода в Куйкуйо (Парагвай) (183 км)

Пояснения к столбцам:

Ветер - указаны скорость ветра в м/с - средняя за 10 мин, порывы в срок и между сроками (в фигурных скобках) и направление, откуда дует ветер: С - северный, СВ - северо-восточный, В - восточный, ЮВ - юго-восточный, Ю - южный, ЮЗ - юго-западный, З - западный, СЗ - северо-западный.
Видимость - горизонтальная дальность видимости в метрах или километрах. При видимости от 1 до 10 км при отсутствии осадков обычно наблюдается дымка, при ухудшении видимости до 1 км и менее - туман. В сухую погоду видимость может ухудшаться дымом, пылью или мглою.
Явления - указаны атмосферные явления, наблюдавшиеся в срок или в последний час перед сроком; фигурными скобками обозначены явления, наблюдавшиеся между сроками (за 1-3 часа до срока); квадратными скобками обозначены град или гололедные отложения с указанием их диаметра в мм.
Облачность - указаны через наклонную черту общая и нижняя облачность в баллах и высота нижней границы облаков в метрах; квадратными скобками обозначены формы облаков: Ci - перистые, Cs - перисто-слоистые, Cc - перисто-кучевые, Ac - высококучевые, As - высокослоистые, Sc - слоисто-кучевые, Ns - слоисто-дождевые, Cu - кучевые, Cb - кучево-дождевые. Подробнее классификацию облаков см. в Атласе облаков (PDF).
T - Температура воздуха - температура, измеренная на высоте 2 м над землей.
Td - Температура точки росы - температура, при понижении до которой содержащийся в воздухе водяной пар достигнет насыщения.
f - Относительная влажность воздуха - влажноcть воздуха, измеренная на высоте 2 м над землей.
Te - Эффективная температура - температура, которую ощущает одетый по сезону человек в тени. Характеристика душности погоды. При расчете учитывается влияние влажности воздуха и скорости ветра на теплоощущения человека.
Tes - Эффективная температура на солнце - температура, которую ощущает человек, с поправкой на солнечный нагрев. Характеристика знойности погоды. Зависит от высоты солнца над горизонтом, облачности и скорости ветра. Ночью, в пасмурную погоду, а также при ветре 12 м/с и более поправка равна нулю.
P - Атмосферное давление - приведенное к уровню моря атмосферное давление.
Po - Атмосферное давление - измеренное на уровне метеостанции атмосферное давление.
Tmin - Минимальная температура - минимум температуры воздуха на высоте 2 м над землей.
Tmax - Максимальная температура - максимум температуры воздуха на высоте 2 м над землей.
R - Количество осадков - Количество выпавших осадков за период времени, мм. При наведении курсора мыши на число - период времени, за который выпало указанное количество осадков.
R24 - Количество осадков - Количество выпавших осадков за 24 часа, мм.
S - Снежный покров - Высота снежного покрова, см. При наведении курсора мыши на число - состояние снежного покрова и степень покрытия местности в баллах.